Starlink 34626

operational
NORAD ID: 65082 Int'l Des: 2025-167 Owner: SPXS Country: US Constellation: starlink
LEOCIRCULAR

Starlink 34626について

説明を読み込み中...

リアルタイム位置

3D地球を読み込み中...

次回通過

高度履歴

Altitude vs Time

uPlot chart will show altitude changes over time

軌道要素

1 65082U 25167E 25340.94203872 .00035029 00000-0 11883-2 0 9993
2 65082 53.1596 97.2763 0001082 53.5120 306.5980 15.30225519 19287
Epoch: Dec 6, 2025 • Age: 11 hours

現在のステータス

高度 490.3 km
速度 7.62 km/s
衛星直下点 -44.41°S, 167.83°W
打ち上げ日 Aug 4, 2025
運用期間 0.3 years
タイプ internet

技術仕様

分類 Payload
質量 575.00 kg
乾燥質量 530.00 kg
総質量 575.00 kg
長さ 0.30 m
直径 4.10 m
スパン 29.00 m
形状 Box + pan
製造者 SPXS
バスタイプ Starlink V2MO
フェーズステータス In Orbit
所有者/国 SPXS/US

大規模コンステレーション

Loading constellations...